Regional Weather Roundup
Issued by NWS

Home | Current Version | Previous Version | Text Only | Print | Product List | Glossary Off
Versions: 1 2 3 4 5 6 7 8 9 10 11 12 13 14 15 16 17 18 19 20 21 22 23 24 25 26 27 28 29 30 31 32 33 34 35 36 37 38 39 40 41 42 43 44 45 46 47 48 49 50

000
ASUS43 KFSD 022010
RWRSD

WEATHER ROUNDUP FOR SOUTH DAKOTA
NATIONAL WEATHER SERVICE SIOUX FALLS SD
300 PM CDT TUE SEP 02 2014

NOTE: "FAIR" INDICATES FEW OR NO CLOUDS BELOW 12,000 FEET WITH NO
SIGNIFICANT WEATHER AND/OR OBSTRUCTIONS TO VISIBILITY.


SDZ001>005-009-010-012>017-022100-
NORTHWEST AND NORTH CENTRAL SOUTH DAKOTA

CITY           SKY/WX    TMP DP  RH WIND       PRES   REMARKS
BUFFALO          N/A     76  45  33 VRB7      29.81S
FAITH            N/A     80  46  30 SW13      29.84F
MOBRIDGE       MOSUNNY   82  47  29 SW10      29.80F
$$

SDZ012>016-024>037-041>051-057-063-072>074-022100-
SOUTHWEST AND SOUTH CENTRAL SOUTH DAKOTA

CITY           SKY/WX    TMP DP  RH WIND       PRES   REMARKS
RAPID CTY ARPT SUNNY     79  50  36 SE9       29.89S
PIERRE         SUNNY     82  46  28 SW13      29.84F
CUSTER         SUNNY     73  32  22 W9        30.01F
ELLSWORTH AFB  SUNNY     80  45  29 S9        29.88F
PHILIP         SUNNY     83  49  30 S8G18     29.85F
PINE RIDGE     MOSUNNY   80  46  30 W13       29.91F
WINNER         FAIR      82  48  30 SW10      29.90F
$$

SDZ004>011-016>023-039-040-022100-
NORTHEAST SOUTH DAKOTA

CITY           SKY/WX    TMP DP  RH WIND       PRES   REMARKS
ABERDEEN       SUNNY     78  52  40 SW15G21   29.83F
WATERTOWN      SUNNY     75  53  46 W15       29.89F
SISSETON         N/A     79  51  37 W14G23    29.82F
$$

SDZ017-020-022-023-036>040-048>070-022100-
SOUTHEAST SOUTH DAKOTA

CITY           SKY/WX    TMP DP  RH WIND       PRES   REMARKS
SIOUX FALLS    MOSUNNY   74  58  57 SW6       29.94S
HURON          SUNNY     78  50  37 SW10      29.88F
CHAMBERLAIN    SUNNY     79  53  39 S8        29.89F
MITCHELL       SUNNY     77  53  43 SW8       29.91F
YANKTON        SUNNY     75  54  46 W7        29.94S
$$

ABBREVIATIONS USED IN REMARKS
   TC - TEMPERATURE IN CELSIUS
  WCI - WIND CHILL INDEX
   HX - HEAT INDEX
  VSB - VISIBILITY



USA.gov is the U.S. government's official web portal to all federal, state and local government web resources and services.